Regional Weather Roundup
Issued by NWS Newport/Morehead, NC

Current Version | Previous Version | Text Only | Print | Product List | Glossary Off
Versions: 1 2 3 4 5 6 7 8 9 10 11 12 13 14 15 16 17 18 19 20 21 22 23 24 25 26 27 28 29 30 31 32 33 34 35 36 37 38 39 40 41 42 43 44 45 46 47 48 49 50

000
ASUS42 KMHX 250125
RWRMHX
WEATHER ROUNDUP FOR EASTERN NORTH CAROLINA
NATIONAL WEATHER SERVICE NEWPORT/MOREHEAD CITY NC
800 PM EST TUE JAN 24 2017

NOTE: "FAIR" INDICATES FEW OR NO CLOUDS BELOW 12,000 FEET
WITH NO SIGNIFICANT WEATHER AND/OR OBSTRUCTIONS TO VISIBILITY

NCZ015>017-031-032-045>047-102-103-250200-
NORTH COAST

CITY           SKY/WX    TMP DP  RH WIND       PRES   REMARKS
EDENTON        CLEAR     55  40  58 NW10G20   29.69R
ELIZABETH CITY PTCLDY    45  38  76 W5        29.66R
KITTY HAWK     NOT AVBL
MANTEO         PTCLDY    46  41  82 SW5       29.67R

$$

NCZ045>047-081-094-103-104-250200-
CENTRAL COAST

CITY           SKY/WX    TMP DP  RH WIND       PRES   REMARKS
FRISCO         CLEAR     53  43  68 W8        29.67R

$$

NCZ095-097-098-100-101-250200-
SOUTHERN COAST

CITY           SKY/WX    TMP DP  RH WIND       PRES   REMARKS
BEAUFORT       CLEAR     54  44  69 W8        29.72R
CEDAR ISLAND   NOT AVBL
JACKSONVILLE   CLEAR     50  43  77 W8        29.74R
PINEY ISLAND   CLEAR    N/A N/A N/A W9        29.70R
WILMINGTON     CLEAR     53  44  71 W5        29.77R


$$

NCZ011>013-027>030-043-044-078>080-089-090>093-098-250200-
COASTAL PLAIN

CITY           SKY/WX    TMP DP  RH WIND       PRES   REMARKS
AHOSKIE          N/A     51  38  59 W3        29.71R
CLINTON        CLEAR     55  42  61 NW5       29.77R
ELIZABETHTOWN  CLEAR     52  44  72 W3        29.78R
GOLDSBORO      CLEAR     55  39  55 W9        29.73R
GREENVILLE     CLEAR     54  39  58 NW5       29.76R
HAVELOCK       CLEAR     51  42  71 W8        29.73R
KENANSVILLE    CLEAR     54  41  62 NW3       29.76R
KINSTON        CLEAR     54  39  58 W5        29.75R
NEW BERN       CLEAR     52  41  66 CALM      29.73R
RICHLANDS      CLEAR     46  43  89 CALM      29.76R
ROCKY MOUNT    CLEAR     52  40  63 W6        29.74R
WASHINGTON     CLEAR     54  39  57 W8          N/A
WHITEVILLE     CLEAR     54  42  63 CALM      29.78R

$$

AMZ130-135-150-152-154-156-158-170-250-252-270-ANZ085-086-088-633-658-670-250200-
MARINE OBSERVATIONS

STATION/POSITION TIME  TEMP    WIND        PRES    WAVE   SWELL
                       AIR SEA DIR/SP/G            HT/PER HT/PER
                 (UTC) (F)     (DEG/KT/KT) (MB)    (FT/S) (FT/S)
CHESAPEAKE LIGHT NOT AVBL
64 E VA BEACH    0050   51 53  310/ 23/ 29 1001.5    9/11   5/11
DUCK             0100   50 46  250/  8/ 11 1003.3
2 E DUCK         0100      47                N/A     4/12   3/12
OREGON INLET     0100   48 50  220/  7/  8 1004.1
13E OREGON INLT  NOT AVBL
HATTERAS CG      0100   54 55  260/ 13/ 19 1004.5
DIAMOND BUOY     0050   57 74  280/ 17/ 21 1004.7    6/11   5/11
CAPE LOOKOUT     0100   56     270/ 11/ 14 1006.1
BEAUFORT LAB     0100   55 52  270/  3/  7 1005.5
30 SE NEW RVR IN 0108   62 65  290/ 16/ 21 1007.3
30 SE NEW RVR IN 0113      64                N/A     5/13   2/13
27 SE WRIGHTSVLE 0108   63 67  290/ 17/ 23 1007.4
5 SE WRIGHTSVLE  0108   57 56  270/  8/ 10 1008.0
225 S CAPE HAT   0050   66 71  310/ 23/ 29 1006.9   13/ 9   8/12
41 SE CHARLESTON 0050   65 68  270/ 19/ 21 1009.1    5/ 5   2/12

$$




USA.gov is the U.S. government's official web portal to all federal, state and local government web resources and services.